Home   Weather   Jyväskylä   Past weeks

Flag for Finland Past Weather in Jyväskylä, Finland — Yesterday and Last 2 Weeks

Now
34 °F

Sprinkles. Low clouds.


Feels Like: 25 °F
Forecast: 11 / 32 °F
Wind: 13 mph from Northwest

Location: Jyvaskyla Airport

Current Time: Jan 23, 2017 at 9:23:47 pm

Latest Report: Jan 23, 2017 at 8:50 pm


Visibility: N/A

Pressure: 29.56 "Hg

Humidity: 93%

Dew Point: 32 °F

Location of JyväskyläLocation

Past Weather in Jyväskylä — Graph

°F

Jyväskylä Temperature Yesterday

Maximum temperature yesterday: 34 °F (at 7:50 pm)
Minimum temperature yesterday: 25 °F (at 12:20 am)
Average temperature yesterday: 30 °F

High & Low Weather Summary for the Past Weeks

 TemperatureHumidityPressure
High41 °F (Jan 19, 5:50 pm)100% (Jan 9, 10:20 pm)30.30 "Hg (Jan 9, 10:20 pm)
Low16 °F (Jan 15, 7:20 pm)44% (Jan 19, 9:50 pm)29.03 "Hg (Jan 13, 7:50 am)
Average28 °F88%29.72 "Hg
* Reported Jan 8 8:20 pm — Jan 23 8:20 pm, Jyväskylä, Weather by CustomWeather, © 2017

Note: Actual official high and low records may vary slightly from our data, if they occured in-between our weather recording intervals... More about our weather records

Advertising

Jyväskylä Weather History for the Previous 24 Hours

Scroll right to see more
 ConditionsComfort  
Time TempWeatherWind HumidityBarometerVisibility
8:20 pm
Mon, Jan 23
34 °FSprinkles. Low clouds.10 mph93%29.56 "HgN/A
7:50 pm34 °FSprinkles. Overcast.10 mph93%29.53 "Hg5 mi
7:20 pm34 °FSprinkles. Overcast.10 mph93%29.53 "HgN/A
6:50 pm34 °FOvercast.9 mph93%29.53 "HgN/A
6:20 pm34 °FSprinkles. Low clouds.7 mph93%29.53 "Hg6 mi
5:50 pm34 °FOvercast.10 mph93%29.53 "HgN/A
5:20 pm34 °FLight rain. Overcast.8 mph93%29.50 "HgN/A
4:50 pm36 °FOvercast.12 mph87%29.50 "HgN/A
4:20 pm34 °FLow clouds.8 mph93%29.50 "HgN/A
3:50 pm34 °FLight rain. Passing clouds.7 mph93%29.53 "HgN/A
3:20 pm34 °FPartly sunny.8 mph93%29.53 "HgN/A
2:50 pm34 °FLight rain. Partly sunny.9 mph93%29.53 "HgN/A
2:20 pm34 °FLight rain. Partly sunny.8 mph93%29.53 "Hg4 mi
1:50 pm34 °FLight rain. Partly sunny.10 mph93%29.53 "HgN/A
1:20 pm34 °FPartly sunny.7 mph93%29.56 "HgN/A
12:50 pm34 °FLight rain. Partly sunny.8 mph93%29.56 "Hg5 mi
12:20 pm34 °FLight rain. Partly sunny.8 mph93%29.56 "HgN/A
11:50 am34 °FSprinkles. Partly sunny.7 mph93%29.56 "HgN/A
11:20 am34 °FDrizzle. Partly sunny.7 mph93%29.59 "Hg5 mi
10:50 am34 °FPartly sunny.8 mph93%29.59 "HgN/A
10:20 am34 °FPartly sunny.8 mph93%29.59 "HgN/A
9:50 am34 °FPartly sunny.7 mph93%29.59 "HgN/A
9:20 am34 °FPartly sunny.8 mph93%29.62 "HgN/A
8:50 am34 °FPassing clouds.8 mph93%29.62 "HgN/A
8:20 am34 °FPassing clouds.7 mph87%29.62 "HgN/A
7:50 am34 °FPassing clouds.7 mph87%29.62 "HgN/A
7:20 am32 °FPassing clouds.10 mph93%29.65 "HgN/A
6:50 am32 °FPassing clouds.10 mph93%29.65 "HgN/A
6:20 am32 °FPassing clouds.9 mph93%29.65 "HgN/A
5:50 am32 °FPassing clouds.7 mph93%29.68 "HgN/A
5:20 am34 °FPassing clouds.7 mph87%29.68 "HgN/A
4:50 am34 °FPassing clouds.7 mph87%29.68 "HgN/A
4:20 am34 °FPassing clouds.8 mph93%29.68 "HgN/A
3:50 am34 °FPassing clouds.6 mph93%29.71 "HgN/A
3:20 am34 °FLow clouds.7 mph93%29.71 "HgN/A
1:50 am32 °FLow clouds.8 mph93%29.74 "HgN/A
1:20 am32 °FLow clouds.7 mph100%29.77 "HgN/A
12:20 am32 °FLow clouds.9 mph100%29.77 "HgN/A
11:50 pm
Sun, Jan 22
32 °FPassing clouds.10 mph100%29.80 "HgN/A
11:20 pm32 °FPassing clouds.9 mph100%29.80 "HgN/A
10:50 pm32 °FPassing clouds.9 mph93%29.80 "HgN/A
10:20 pm34 °FPassing clouds.8 mph93%29.80 "HgN/A
9:50 pm32 °FPassing clouds.9 mph93%29.83 "HgN/A
9:20 pm34 °FPassing clouds.9 mph93%29.80 "HgN/A
Weather by CustomWeather, © 2017

See weather overviewHow to use our weather pages